| time (UTC) | temp F | wind direction | speed MPH | gust MPH | rain 1hr in | rain 24hr in | rain mn in | humidity % | barometer mb |
| 20260508014541 | 32 | 252 | 0.0 | 0.0 | 0.00 | 0.00 | 0.00 | 86 | 1021.0 |
| 20260508013022 | 32 | 252 | 0.0 | 0.0 | 0.00 | 0.00 | 0.00 | 85 | 1020.9 |
| 20260508011522 | 32 | 252 | 0.0 | 0.0 | 0.00 | 0.00 | 0.00 | 84 | 1020.8 |
| 20260508010027 | 32 | 252 | 0.0 | 1.0 | 0.00 | 0.00 | 0.00 | 84 | 1020.7 |
| 20260508004523 | 33 | 252 | 0.0 | 0.0 | 0.00 | 0.00 | 0.00 | 82 | 1020.7 |
| 20260508003041 | 33 | 252 | 0.0 | 0.0 | 0.00 | 0.00 | 0.00 | 82 | 1020.6 |
| 20260508001514 | 34 | 252 | 0.0 | 0.0 | 0.00 | 0.00 | 0.00 | 81 | 1020.4 |
| 20260508000011 | 35 | 252 | 0.0 | 0.0 | 0.00 | 0.00 | 0.00 | 79 | 1020.3 |
| 20260507234508 | 35 | 252 | 0.0 | 0.0 | 0.00 | 0.00 | 0.00 | 78 | 1020.2 |
| 20260507233006 | 36 | 252 | 0.0 | 0.0 | 0.00 | 0.00 | 0.00 | 77 | 1020.1 |
| 20260507231505 | 36 | 252 | 0.0 | 0.0 | 0.00 | 0.00 | 0.00 | 77 | 1020.0 |
| 20260507230004 | 36 | 252 | 0.0 | 0.0 | 0.00 | 0.00 | 0.00 | 75 | 1019.9 |
| 20260507224620 | 37 | 252 | 0.0 | 0.0 | 0.00 | 0.00 | 0.00 | 74 | 1019.9 |
| 20260507223101 | 37 | 252 | 0.0 | 0.0 | 0.00 | 0.00 | 0.00 | 73 | 1019.9 |
| 20260507221557 | 38 | 252 | 0.0 | 0.0 | 0.00 | 0.00 | 0.00 | 73 | 1019.7 |
| 20260507220054 | 38 | 252 | 0.0 | 0.0 | 0.00 | 0.00 | 0.00 | 72 | 1019.7 |
| 20260507214554 | 39 | 252 | 0.0 | 0.0 | 0.00 | 0.00 | 0.00 | 70 | 1019.7 |
| 20260507213051 | 41 | 252 | 0.0 | 0.0 | 0.00 | 0.00 | 0.00 | 66 | 1019.6 |
| 20260507211606 | 41 | 252 | 0.0 | 0.0 | 0.00 | 0.00 | 0.00 | 66 | 1019.4 |
| 20260507210050 | 42 | 252 | 0.0 | 0.0 | 0.00 | 0.00 | 0.00 | 65 | 1019.3 |
| 20260507204550 | 42 | 252 | 0.0 | 0.0 | 0.00 | 0.00 | 0.00 | 65 | 1019.1 |
| 20260507203045 | 44 | 252 | 0.0 | 0.0 | 0.00 | 0.00 | 0.00 | 62 | 1019.0 |
| 20260507201552 | 45 | 252 | 0.0 | 0.0 | 0.00 | 0.00 | 0.00 | 62 | 1018.9 |
| 20260507200054 | 46 | 252 | 0.0 | 0.0 | 0.00 | 0.00 | 0.00 | 61 | 1018.9 |
| 20260507194544 | 46 | 252 | 0.0 | 0.0 | 0.00 | 0.00 | 0.00 | 57 | 1018.9 |
| 20260507193042 | 48 | 252 | 0.0 | 0.0 | 0.00 | 0.00 | 0.00 | 56 | 1018.6 |
| 20260507191548 | 49 | 252 | 0.0 | 0.0 | 0.00 | 0.00 | 0.00 | 52 | 1018.5 |
| 20260507190039 | 49 | 250 | 0.0 | 2.0 | 0.00 | 0.00 | 0.00 | 49 | 1018.3 |
| 20260507184537 | 50 | 249 | 0.0 | 3.0 | 0.00 | 0.00 | 0.00 | 45 | 1018.2 |
| 20260507183036 | 51 | 226 | 1.0 | 5.0 | 0.00 | 0.00 | 0.00 | 42 | 1018.1 |
| 20260507181535 | 52 | 244 | 1.0 | 4.0 | 0.00 | 0.00 | 0.00 | 40 | 1018.1 |
| 20260507180042 | 53 | 226 | 2.0 | 4.0 | 0.00 | 0.00 | 0.00 | 42 | 1018.0 |
| 20260507174536 | 55 | 244 | 2.0 | 6.0 | 0.00 | 0.00 | 0.00 | 42 | 1017.8 |
| 20260507173035 | 56 | 232 | 3.0 | 6.0 | 0.00 | 0.00 | 0.00 | 44 | 1017.8 |
| 20260507171531 | 55 | 285 | 4.0 | 8.0 | 0.00 | 0.00 | 0.00 | 43 | 1017.7 |
| 20260507170031 | 55 | 218 | 2.0 | 10.0 | 0.00 | 0.00 | 0.00 | 46 | 1017.7 |
| 20260507164531 | 55 | 205 | 3.0 | 8.0 | 0.00 | 0.00 | 0.00 | 47 | 1017.7 |
| 20260507163030 | 55 | 193 | 5.0 | 10.0 | 0.00 | 0.00 | 0.00 | 41 | 1017.7 |
| 20260507161529 | 55 | 214 | 4.0 | 9.0 | 0.00 | 0.00 | 0.00 | 44 | 1017.7 |
| 20260507160033 | 56 | 214 | 6.0 | 11.0 | 0.00 | 0.00 | 0.00 | 45 | 1017.7 |
| 20260507154529 | 57 | 236 | 4.0 | 9.0 | 0.00 | 0.00 | 0.00 | 40 | 1017.7 |
| 20260507153031 | 57 | 205 | 4.0 | 9.0 | 0.00 | 0.00 | 0.00 | 42 | 1017.6 |
| 20260507151524 | 56 | 210 | 7.0 | 10.0 | 0.00 | 0.00 | 0.00 | 43 | 1017.5 |
| 20260507150023 | 57 | 229 | 6.0 | 11.0 | 0.00 | 0.00 | 0.00 | 44 | 1017.5 |
| 20260507144522 | 58 | 231 | 6.0 | 11.0 | 0.00 | 0.00 | 0.00 | 44 | 1017.4 |
| 20260507143026 | 59 | 200 | 5.0 | 10.0 | 0.00 | 0.00 | 0.00 | 40 | 1017.3 |
| 20260507141520 | 59 | 205 | 4.0 | 9.0 | 0.00 | 0.00 | 0.00 | 39 | 1017.4 |
| 20260507140026 | 59 | 182 | 2.0 | 9.0 | 0.00 | 0.00 | 0.00 | 40 | 1017.4 |
| 20260507134520 | 59 | 225 | 4.0 | 8.0 | 0.00 | 0.00 | 0.00 | 40 | 1017.4 |
| 20260507133016 | 59 | 183 | 1.0 | 6.0 | 0.00 | 0.00 | 0.00 | 42 | 1017.4 |
| 20260507131514 | 58 | 200 | 4.0 | 8.0 | 0.00 | 0.00 | 0.00 | 42 | 1017.5 |
| 20260507130012 | 58 | 252 | 4.0 | 9.0 | 0.00 | 0.00 | 0.00 | 43 | 1017.4 |
| 20260507124515 | 58 | 210 | 4.0 | 10.0 | 0.00 | 0.00 | 0.00 | 42 | 1017.4 |
| 20260507123018 | 57 | 205 | 5.0 | 10.0 | 0.00 | 0.00 | 0.00 | 44 | 1017.4 |
| 20260507121512 | 57 | 210 | 5.0 | 10.0 | 0.00 | 0.00 | 0.00 | 44 | 1017.4 |
| 20260507120009 | 57 | 235 | 7.0 | 11.0 | 0.00 | 0.00 | 0.00 | 41 | 1017.4 |
| 20260507114509 | 57 | 218 | 6.0 | 10.0 | 0.00 | 0.00 | 0.00 | 43 | 1017.3 |
| 20260507113007 | 57 | 219 | 7.0 | 11.0 | 0.00 | 0.00 | 0.00 | 42 | 1017.3 |
| 20260507111507 | 57 | 200 | 4.0 | 10.0 | 0.00 | 0.00 | 0.00 | 46 | 1017.4 |
| 20260507110012 | 57 | 193 | 5.0 | 10.0 | 0.00 | 0.00 | 0.00 | 42 | 1017.3 |
| 20260507104503 | 57 | 255 | 7.0 | 12.0 | 0.00 | 0.00 | 0.00 | 38 | 1017.1 |
| 20260507103003 | 57 | 215 | 8.0 | 12.0 | 0.00 | 0.00 | 0.00 | 40 | 1017.0 |
| 20260507101503 | 57 | 131 | 0.0 | 3.0 | 0.00 | 0.00 | 0.00 | 31 | 1016.9 |
| 20260507094602 | 55 | 60 | 0.0 | 1.0 | 0.00 | 0.00 | 0.00 | 32 | 1016.8 |
| 20260507093057 | 56 | 340 | 1.0 | 6.0 | 0.00 | 0.00 | 0.00 | 34 | 1016.8 |
| 20260507091602 | 54 | 255 | 0.0 | 3.0 | 0.00 | 0.00 | 0.00 | 37 | 1016.9 |
| 20260507090110 | 53 | 335 | 0.0 | 7.0 | 0.00 | 0.00 | 0.00 | 36 | 1016.9 |
| 20260507084549 | 53 | 283 | 1.0 | 7.0 | 0.00 | 0.00 | 0.00 | 37 | 1016.9 |
| 20260507083047 | 52 | 77 | 2.0 | 7.0 | 0.00 | 0.00 | 0.00 | 36 | 1016.8 |
| 20260507081553 | 52 | 60 | 5.0 | 9.0 | 0.00 | 0.00 | 0.00 | 38 | 1016.8 |
| 20260507080043 | 52 | 56 | 1.0 | 9.0 | 0.00 | 0.00 | 0.00 | 40 | 1016.6 |
| 20260507074542 | 51 | 39 | 0.0 | 7.0 | 0.00 | 0.00 | 0.00 | 41 | 1016.5 |
| 20260507073053 | 51 | 47 | 4.0 | 7.0 | 0.00 | 0.00 | 0.00 | 42 | 1016.4 |
| 20260507071536 | 51 | 56 | 2.0 | 7.0 | 0.00 | 0.00 | 0.00 | 44 | 1016.3 |
| 20260507070041 | 50 | 48 | 2.0 | 7.0 | 0.00 | 0.00 | 0.00 | 44 | 1016.4 |
| 20260507064531 | 49 | 13 | 3.0 | 7.0 | 0.00 | 0.00 | 0.00 | 44 | 1016.2 |
| 20260507063027 | 47 | 42 | 4.0 | 9.0 | 0.00 | 0.00 | 0.00 | 46 | 1016.1 |
| 20260507061531 | 47 | 31 | 1.0 | 8.0 | 0.00 | 0.00 | 0.00 | 49 | 1016.0 |
| 20260507060029 | 46 | 353 | 2.0 | 6.0 | 0.00 | 0.00 | 0.00 | 51 | 1015.8 |
| 20260507054522 | 44 | 311 | 2.0 | 5.0 | 0.00 | 0.00 | 0.00 | 54 | 1015.8 |
| 20260507053016 | 43 | 300 | 2.0 | 7.0 | 0.00 | 0.00 | 0.00 | 56 | 1015.8 |
| 20260507051511 | 42 | 306 | 0.0 | 7.0 | 0.00 | 0.00 | 0.00 | 58 | 1015.7 |
| 20260507050020 | 42 | 340 | 0.0 | 6.0 | 0.00 | 0.00 | 0.00 | 59 | 1015.6 |
| 20260507044519 | 41 | 322 | 0.0 | 7.0 | 0.00 | 0.00 | 0.00 | 59 | 1015.5 |
| 20260507043004 | 40 | 297 | 0.0 | 0.0 | 0.00 | 0.00 | 0.00 | 63 | 1015.5 |
| 20260507041501 | 37 | 297 | 0.0 | 0.0 | 0.00 | 0.00 | 0.00 | 69 | 1015.4 |
| 20260507040100 | 35 | 290 | 0.0 | 0.0 | 0.00 | 0.00 | 0.00 | 72 | 1015.1 |
| 20260507034604 | 34 | 290 | 0.0 | 0.0 | 0.00 | 0.00 | 0.00 | 71 | 1015.0 |
| 20260507033059 | 34 | 290 | 0.0 | 0.0 | 0.00 | 0.00 | 0.00 | 70 | 1014.9 |
| 20260507031555 | 34 | 290 | 0.0 | 0.0 | 0.00 | 0.00 | 0.00 | 69 | 1014.9 |
| 20260507030106 | 34 | 290 | 0.0 | 0.0 | 0.00 | 0.00 | 0.00 | 69 | 1014.9 |
| 20260507024556 | 34 | 290 | 0.0 | 0.0 | 0.00 | 0.00 | 0.00 | 69 | 1014.7 |
| 20260507023052 | 35 | 290 | 0.0 | 0.0 | 0.00 | 0.00 | 0.00 | 68 | 1014.5 |
| 20260507021607 | 35 | 290 | 0.0 | 0.0 | 0.00 | 0.00 | 0.00 | 68 | 1014.5 |
| 20260507020054 | 35 | 291 | 0.0 | 0.0 | 0.00 | 0.00 | 0.00 | 69 | 1014.4 |
| 20260507014608 | 35 | 291 | 0.0 | 0.0 | 0.00 | 0.00 | 0.00 | 68 | 1014.3 |